Tracking 29594 objects as of 20-Sep-2024
HD Live streaming from Space Station
objects crossing your sky now

STARLINK-6094

Track STARLINK-6094 now!
10-day predictions
STARLINK-6094 is classified as:


NORAD ID: 56122
Int'l Code: 2023-046AF
Perigee: 565.3 km
Apogee: 567.1 km
Inclination: 43.0 °
Period: 95.8 minutes
Semi major axis: 6937 km
RCS: Unknown
Launch date: March 29, 2023
Source: United States (US)
Launch site: AIR FORCE EASTERN TEST RANGE (AFETR)
Your satellite tracking list
Your tracking list is empty




NASA's NSSDC Master Catalog

Two Line Element Set (TLE):
1 56122U 23046AF  24263.85865842  .00000516  00000-0  53287-4 0  9995
2 56122  43.0047 190.1110 0001311 262.9656  97.1037 15.02537767 81460
Source of the keplerian elements: AFSPC